• In Belarus
  • List of Countries
  • For 7 days
  • Water Temperature
  • Satellite Maps
  • Weather Map
  • Weather Widgets
  • user-avatar
    Login

    Hourly Weather Lgovo

    Today, 22 June, Friday

    Time Temperature Precipitation Wind Pressure Humidity
    00:00 +16°C° 0 mm 2 mps 740 mmHg 92%
    01:00 +16°C° 0 mm 3 mps 740 mmHg 93%
    02:00 +16°C° 0 mm 3 mps 739 mmHg 91%
    03:00 +17°C° 0 mm 3 mps 739 mmHg 88%
    04:00 +17°C° 0 mm 4 mps 739 mmHg 86%
    05:00 +18°C° 0 mm 4 mps 738 mmHg 83%
    06:00 +20°C° 0 mm 5 mps 738 mmHg 78%
    07:00 +22°C° 0 mm 5 mps 738 mmHg 73%
    08:00 +24°C° 0 mm 6 mps 738 mmHg 67%
    09:00 +24°C° 0.1 mm 6 mps 737 mmHg 66%
    10:00 +26°C° 0.1 mm 6 mps 737 mmHg 64%
    11:00 +27°C° 0.1 mm 6 mps 737 mmHg 63%
    12:00 +26°C° 0.9 mm 6 mps 737 mmHg 70%
    13:00 +26°C° 0.9 mm 6 mps 737 mmHg 76%
    14:00 +25°C° 0.9 mm 5 mps 737 mmHg 83%
    15:00 +23°C° 1.2 mm 5 mps 737 mmHg 86%
    16:00 +22°C° 1.2 mm 4 mps 737 mmHg 88%
    17:00 +21°C° 1.2 mm 3 mps 738 mmHg 91%
    18:00 +21°C° 0.6 mm 3 mps 738 mmHg 92%
    19:00 +20°C° 0.6 mm 2 mps 738 mmHg 93%
    20:00 +19°C° 0.6 mm 2 mps 738 mmHg 95%
    21:00 +18°C° 0 mm 2 mps 739 mmHg 94%
    22:00 +17°C° 0 mm 2 mps 739 mmHg 94%
    23:00 +16°C° 0 mm 2 mps 740 mmHg 93%

    Tomorrow, 23 June, Saturday

    Time Temperature Precipitation Wind Pressure Humidity
    00:00 +15°C° 0 mm 2 mps 740 mmHg 93%
    01:00 +14°C° 0 mm 2 mps 740 mmHg 92%
    02:00 +13°C° 0 mm 2 mps 740 mmHg 91%
    03:00 +13°C° 0 mm 2 mps 741 mmHg 90%
    04:00 +13°C° 0 mm 2 mps 741 mmHg 88%
    05:00 +13°C° 0 mm 2 mps 741 mmHg 87%
    06:00 +14°C° 0 mm 2 mps 741 mmHg 82%
    07:00 +15°C° 0 mm 2 mps 741 mmHg 77%
    08:00 +16°C° 0 mm 2 mps 741 mmHg 72%
    09:00 +16°C° 0.1 mm 2 mps 741 mmHg 73%
    10:00 +16°C° 0.1 mm 2 mps 741 mmHg 74%
    11:00 +17°C° 0.1 mm 2 mps 741 mmHg 75%
    12:00 +16°C° 0.3 mm 2 mps 741 mmHg 80%
    13:00 +16°C° 0.3 mm 3 mps 740 mmHg 84%
    14:00 +16°C° 0.3 mm 3 mps 740 mmHg 89%
    15:00 +16°C° 0.4 mm 3 mps 740 mmHg 90%
    16:00 +16°C° 0.4 mm 3 mps 739 mmHg 92%
    17:00 +16°C° 0.4 mm 3 mps 739 mmHg 93%
    18:00 +16°C° 0.7 mm 3 mps 738 mmHg 94%
    19:00 +16°C° 0.7 mm 2 mps 738 mmHg 96%
    20:00 +16°C° 0.7 mm 2 mps 738 mmHg 97%
    21:00 +16°C° 1.1 mm 2 mps 737 mmHg 97%
    22:00 +16°C° 1.1 mm 2 mps 737 mmHg 97%
    23:00 +16°C° 1.1 mm 2 mps 736 mmHg 98%

    Day after tomorrow, 24 June, Sunday

    Time Temperature Precipitation Wind Pressure Humidity
    00:00 +16°C° 1.8 mm 3 mps 736 mmHg 97%
    01:00 +17°C° 1.8 mm 4 mps 735 mmHg 97%
    02:00 +18°C° 1.8 mm 4 mps 735 mmHg 97%
    03:00 +18°C° 0.4 mm 4 mps 735 mmHg 97%
    04:00 +18°C° 0.4 mm 4 mps 734 mmHg 97%
    05:00 +18°C° 0.4 mm 3 mps 734 mmHg 97%
    06:00 +18°C° 0.3 mm 4 mps 734 mmHg 95%
    07:00 +19°C° 0.3 mm 5 mps 734 mmHg 94%
    08:00 +19°C° 0.3 mm 5 mps 734 mmHg 92%
    09:00 +17°C° 0.2 mm 5 mps 735 mmHg 90%
    10:00 +16°C° 0.2 mm 6 mps 736 mmHg 87%
    11:00 +15°C° 0.2 mm 6 mps 736 mmHg 85%
    12:00 +15°C° 0 mm 6 mps 737 mmHg 80%
    13:00 +15°C° 0 mm 5 mps 738 mmHg 75%
    14:00 +15°C° 0 mm 5 mps 739 mmHg 71%
    15:00 +15°C° 0 mm 5 mps 739 mmHg 69%
    16:00 +15°C° 0 mm 5 mps 740 mmHg 68%
    17:00 +15°C° 0 mm 4 mps 740 mmHg 67%
    18:00 +14°C° 0 mm 3 mps 741 mmHg 73%
    19:00 +14°C° 0 mm 2 mps 741 mmHg 78%
    20:00 +13°C° 0 mm 1 mps 742 mmHg 84%
    21:00 +12°C° 0 mm 1 mps 742 mmHg 87%
    22:00 +11°C° 0 mm 1 mps 742 mmHg 90%
    23:00 +11°C° 0 mm 1 mps 743 mmHg 93%

    25 June, Monday

    Time Temperature Precipitation Wind Pressure Humidity
    00:00 +10°C° 0 mm 1 mps 743 mmHg 94%
    01:00 +10°C° 0 mm 1 mps 743 mmHg 94%
    02:00 +10°C° 0 mm 1 mps 743 mmHg 95%
    03:00 +11°C° 0 mm 1 mps 743 mmHg 93%
    04:00 +11°C° 0 mm 1 mps 744 mmHg 92%
    05:00 +12°C° 0 mm 1 mps 744 mmHg 90%
    06:00 +14°C° 0 mm 2 mps 744 mmHg 83%
    07:00 +16°C° 0 mm 2 mps 744 mmHg 77%
    08:00 +18°C° 0 mm 3 mps 744 mmHg 70%
    09:00 +19°C° 0.1 mm 3 mps 744 mmHg 65%
    10:00 +20°C° 0.1 mm 3 mps 744 mmHg 60%
    11:00 +21°C° 0.1 mm 4 mps 744 mmHg 55%
    12:00 +21°C° 0 mm 4 mps 744 mmHg 53%
    13:00 +22°C° 0 mm 4 mps 744 mmHg 50%
    14:00 +22°C° 0 mm 4 mps 744 mmHg 48%
    15:00 +22°C° 0 mm 3 mps 744 mmHg 51%
    16:00 +22°C° 0 mm 3 mps 744 mmHg 54%
    17:00 +21°C° 0 mm 3 mps 744 mmHg 58%
    18:00 +19°C° 0.1 mm 2 mps 744 mmHg 67%
    19:00 +17°C° 0.1 mm 2 mps 744 mmHg 76%
    20:00 +15°C° 0.1 mm 2 mps 744 mmHg 85%
    21:00 +14°C° 0 mm 2 mps 744 mmHg 88%
    22:00 +14°C° 0 mm 2 mps 745 mmHg 90%
    23:00 +13°C° 0 mm 1 mps 745 mmHg 92%

    26 June, Tuesday

    Time Temperature Precipitation Wind Pressure Humidity
    00:00 +12°C° 0 mm 1 mps 745 mmHg 93%
    01:00 +12°C° 0 mm 1 mps 745 mmHg 94%
    02:00 +11°C° 0 mm 1 mps 745 mmHg 95%
    03:00 +12°C° 0 mm 1 mps 745 mmHg 94%
    04:00 +12°C° 0 mm 1 mps 745 mmHg 93%
    05:00 +13°C° 0 mm 1 mps 745 mmHg 92%
    06:00 +14°C° 0.1 mm 1 mps 745 mmHg 89%
    07:00 +15°C° 0.1 mm 2 mps 745 mmHg 85%
    08:00 +16°C° 0.1 mm 2 mps 745 mmHg 81%
    09:00 +17°C° 0.1 mm 2 mps 745 mmHg 78%
    10:00 +18°C° 0.1 mm 2 mps 745 mmHg 74%
    11:00 +18°C° 0.1 mm 2 mps 745 mmHg 70%
    12:00 +19°C° 0.6 mm 2 mps 744 mmHg 71%
    13:00 +19°C° 0.6 mm 2 mps 744 mmHg 72%
    14:00 +20°C° 0.6 mm 2 mps 744 mmHg 73%
    15:00 +19°C° 1 mm 2 mps 744 mmHg 76%
    16:00 +19°C° 1 mm 2 mps 744 mmHg 79%
    17:00 +19°C° 1 mm 2 mps 744 mmHg 81%
    18:00 +18°C° 0.3 mm 2 mps 744 mmHg 85%
    19:00 +16°C° 0.3 mm 2 mps 744 mmHg 89%
    20:00 +15°C° 0.3 mm 1 mps 744 mmHg 92%
    21:00 +14°C° 0 mm 1 mps 744 mmHg 93%
    22:00 +13°C° 0 mm 1 mps 744 mmHg 94%
    23:00 +12°C° 0 mm 1 mps 744 mmHg 96%

    27 June, Wednesday

    Time Temperature Precipitation Wind Pressure Humidity
    00:00 +12°C° 0 mm 1 mps 744 mmHg 96%
    01:00 +11°C° 0 mm 1 mps 744 mmHg 96%
    02:00 +11°C° 0 mm 1 mps 744 mmHg 96%
    03:00 +11°C° 0 mm 1 mps 744 mmHg 95%
    04:00 +12°C° 0 mm 1 mps 744 mmHg 95%
    05:00 +13°C° 0 mm 1 mps 745 mmHg 94%
    06:00 +14°C° 0 mm 1 mps 745 mmHg 88%
    07:00 +16°C° 0 mm 1 mps 745 mmHg 82%
    08:00 +19°C° 0 mm 1 mps 745 mmHg 75%
    09:00 +20°C° 0 mm 1 mps 745 mmHg 68%
    10:00 +22°C° 0 mm 1 mps 745 mmHg 60%
    11:00 +23°C° 0 mm 1 mps 745 mmHg 53%
    12:00 +24°C° 0.1 mm 1 mps 744 mmHg 53%
    13:00 +24°C° 0.1 mm 1 mps 744 mmHg 54%
    14:00 +24°C° 0.1 mm 1 mps 744 mmHg 55%
    15:00 +23°C° 0.5 mm 1 mps 744 mmHg 59%
    16:00 +23°C° 0.5 mm 1 mps 744 mmHg 63%
    17:00 +23°C° 0.5 mm 1 mps 744 mmHg 67%
    18:00 +21°C° 0.3 mm 1 mps 744 mmHg 72%
    19:00 +19°C° 0.3 mm 1 mps 744 mmHg 77%
    20:00 +18°C° 0.3 mm 1 mps 744 mmHg 82%
    21:00 +16°C° 0 mm 1 mps 744 mmHg 84%
    22:00 +15°C° 0 mm 1 mps 744 mmHg 86%
    23:00 +14°C° 0 mm 1 mps 744 mmHg 88%
    Show more